Location: Unspecified
(58.7730°N, 5.8460°E)
Time: 18:31:43
(UTC+02:00)

Okean 3 - Visible Passes

Search period start: 30 May 2015 00:00
Search period end: 09 June 2015 00:00
Orbit: 581 x 605 km, 82.5° (Epoch: 29 May)

Date Brightness Start Highest point End Pass type
(mag) Time Alt. Az. Time Alt. Az. Time Alt. Az.
30 May 6.9 02:33:28 10° NE 02:34:03 10° NE 02:34:46 10° NE visible
31 May 6.5 02:41:34 10° NNE 02:43:32 13° NE 02:45:37 10° ENE visible
01 Jun 6.3 02:50:17 10° NNE 02:52:59 16° NE 02:55:44 10° E visible
02 Jun 6.2 02:59:09 10° N 03:02:23 20° ENE 03:05:38 10° ESE visible
03 Jun 5.7 03:08:07 10° N 03:11:44 26° ENE 03:15:22 10° ESE visible
04 Jun 5.2 03:17:09 10° N 03:21:04 33° ENE 03:24:57 10° SE visible
05 Jun 6.6 01:50:46 10° NNE 01:51:45 11° NE 01:52:52 10° ENE visible
06 Jun 6.3 01:59:06 10° NNE 02:01:13 14° NE 02:03:26 10° E visible
07 Jun 6.1 02:07:51 10° NNE 02:10:39 17° NE 02:13:30 10° E visible
08 Jun 5.9 02:16:44 10° N 02:20:02 21° ENE 02:23:21 10° ESE visible
